Time,TemperatureF,DewpointF,PressureIn,WindDirection,WindDirectionDegrees,WindSpeedMPH,WindSpeedGustMPH,Humidity,HourlyPrecipIn,Conditions,Clouds,dailyrainin,SolarRadiationWatts/m^2,SoftwareType,DateUTC
2013-02-03 00:00:00,18.3,14.3,30.05,NW,307,0.0,0.0,84,0.00,,,0.00,0,Wunderground v.1.15,2013-02-03 05:00:00,
2013-02-03 00:05:00,18.2,14.2,30.05,NW,307,1.0,1.0,84,0.00,,,0.00,0,Wunderground v.1.15,2013-02-03 05:05:00,
2013-02-03 00:15:00,18.1,14.1,30.05,NW,307,0.0,1.0,84,0.00,,,0.00,0,Wunderground v.1.15,2013-02-03 05:15:00,
2013-02-03 00:20:00,18.0,14.0,30.05,NW,307,1.0,1.0,84,0.00,,,0.00,0,Wunderground v.1.15,2013-02-03 05:20:00,
2013-02-03 00:30:00,18.0,14.0,30.05,NW,307,1.0,2.0,84,0.00,,,0.00,0,Wunderground v.1.15,2013-02-03 05:30:00,
2013-02-03 00:40:00,17.9,13.9,30.04,NW,307,1.0,1.0,84,0.00,,,0.00,0,Wunderground v.1.15,2013-02-03 05:40:00,
2013-02-03 00:50:00,17.9,13.9,30.05,NW,307,0.0,0.0,84,0.00,,,0.00,0,Wunderground v.1.15,2013-02-03 05:50:00,
2013-02-03 01:00:00,17.8,13.8,30.04,NW,307,1.0,1.0,84,0.00,,,0.00,0,Wunderground v.1.15,2013-02-03 06:00:00,
2013-02-03 01:10:00,17.7,13.4,30.04,NW,307,1.0,1.0,83,0.00,,,0.00,0,Wunderground v.1.15,2013-02-03 06:10:00,
2013-02-03 01:15:00,17.7,13.4,30.04,NW,307,1.0,2.0,83,0.00,,,0.00,0,Wunderground v.1.15,2013-02-03 06:15:00,
2013-02-03 01:25:00,17.6,13.3,30.04,NW,307,0.0,1.0,83,0.00,,,0.00,0,Wunderground v.1.15,2013-02-03 06:25:00,
2013-02-03 01:35:00,17.6,13.6,30.03,NW,307,0.0,0.0,84,0.00,,,0.00,0,Wunderground v.1.15,2013-02-03 06:35:00,
2013-02-03 01:45:00,17.5,13.5,30.03,NW,307,0.0,1.0,84,0.00,,,0.00,0,Wunderground v.1.15,2013-02-03 06:45:00,
2013-02-03 01:50:00,17.4,13.4,30.03,NW,307,1.0,1.0,84,0.00,,,0.00,0,Wunderground v.1.15,2013-02-03 06:50:00,
2013-02-03 02:00:00,17.3,13.3,30.02,NW,307,1.0,1.0,84,0.00,,,0.00,0,Wunderground v.1.15,2013-02-03 07:00:00,
2013-02-03 02:10:00,17.2,13.2,30.02,NW,307,1.0,1.0,84,0.00,,,0.00,0,Wunderground v.1.15,2013-02-03 07:10:00,
2013-02-03 02:20:00,17.2,13.2,30.02,NW,307,0.0,0.0,84,0.00,,,0.00,0,Wunderground v.1.15,2013-02-03 07:20:00,
2013-02-03 02:30:00,17.2,13.2,30.02,NW,307,0.0,0.0,84,0.00,,,0.00,0,Wunderground v.1.15,2013-02-03 07:30:00,
2013-02-03 02:40:00,17.2,13.5,30.02,NW,307,0.0,0.0,85,0.00,,,0.00,0,Wunderground v.1.15,2013-02-03 07:40:00,
2013-02-03 02:50:00,17.1,13.4,30.02,NW,307,1.0,1.0,85,0.00,,,0.00,0,Wunderground v.1.15,2013-02-03 07:50:00,
2013-02-03 03:00:00,16.8,13.3,30.02,NW,307,1.0,1.0,86,0.00,,,0.00,0,Wunderground v.1.15,2013-02-03 08:00:00,
2013-02-03 03:10:00,16.6,13.1,30.01,NW,307,0.0,0.0,86,0.00,,,0.00,0,Wunderground v.1.15,2013-02-03 08:10:00,
2013-02-03 03:20:00,16.4,13.2,30.01,NW,307,0.0,0.0,87,0.00,,,0.00,0,Wunderground v.1.15,2013-02-03 08:20:00,
2013-02-03 03:30:00,16.3,13.1,30.00,NW,307,0.0,0.0,87,0.00,,,0.00,0,Wunderground v.1.15,2013-02-03 08:30:00,
2013-02-03 03:40:00,16.0,13.1,30.01,NW,307,0.0,0.0,88,0.00,,,0.00,0,Wunderground v.1.15,2013-02-03 08:40:00,
2013-02-03 03:50:00,15.9,13.0,30.00,NW,307,0.0,0.0,88,0.00,,,0.00,0,Wunderground v.1.15,2013-02-03 08:50:00,
2013-02-03 04:00:00,15.9,13.2,29.99,NW,307,0.0,0.0,89,0.00,,,0.00,0,Wunderground v.1.15,2013-02-03 09:00:00,
2013-02-03 04:10:00,15.8,13.1,29.99,NW,307,0.0,0.0,89,0.00,,,0.00,0,Wunderground v.1.15,2013-02-03 09:10:00,
2013-02-03 04:20:00,15.7,13.0,29.99,NW,307,0.0,0.0,89,0.00,,,0.00,0,Wunderground v.1.15,2013-02-03 09:20:00,
2013-02-03 04:25:00,15.7,13.0,29.98,NW,307,0.0,0.0,89,0.00,,,0.00,0,Wunderground v.1.15,2013-02-03 09:25:00,
2013-02-03 04:35:00,15.8,13.1,29.98,NW,307,0.0,0.0,89,0.00,,,0.00,0,Wunderground v.1.15,2013-02-03 09:35:00,
2013-02-03 04:45:00,15.7,13.3,29.98,NW,307,0.0,0.0,90,0.00,,,0.00,0,Wunderground v.1.15,2013-02-03 09:45:00,
2013-02-03 04:55:00,15.7,13.3,29.98,NW,307,0.0,0.0,90,0.00,,,0.00,0,Wunderground v.1.15,2013-02-03 09:55:00,
2013-02-03 05:00:00,15.8,13.4,29.98,NW,307,0.0,0.0,90,0.00,,,0.00,0,Wunderground v.1.15,2013-02-03 10:00:00,
2013-02-03 05:10:00,15.7,13.3,29.97,NW,307,0.0,0.0,90,0.00,,,0.00,0,Wunderground v.1.15,2013-02-03 10:10:00,
2013-02-03 05:20:00,15.7,13.3,29.98,NW,307,0.0,0.0,90,0.00,,,0.00,0,Wunderground v.1.15,2013-02-03 10:20:00,
2013-02-03 05:30:00,15.7,13.3,29.98,NW,307,0.0,0.0,90,0.00,,,0.00,0,Wunderground v.1.15,2013-02-03 10:30:00,
2013-02-03 05:40:00,15.6,13.2,29.97,NW,307,0.0,0.0,90,0.00,,,0.00,0,Wunderground v.1.15,2013-02-03 10:40:00,
2013-02-03 05:55:00,15.6,13.2,29.97,NW,307,1.0,1.0,90,0.00,,,0.00,0,Wunderground v.1.15,2013-02-03 10:55:00,
2013-02-03 06:05:00,15.4,13.0,29.97,NW,307,1.0,1.0,90,0.00,,,0.00,0,Wunderground v.1.15,2013-02-03 11:05:00,
2013-02-03 06:15:00,15.4,13.0,29.98,NW,307,0.0,0.0,90,0.00,,,0.00,0,Wunderground v.1.15,2013-02-03 11:15:00,
2013-02-03 06:20:00,15.4,13.0,29.98,NW,307,0.0,0.0,90,0.00,,,0.00,0,Wunderground v.1.15,2013-02-03 11:20:00,
2013-02-03 06:30:00,15.3,13.1,29.97,NW,307,0.0,0.0,91,0.00,,,0.00,0,Wunderground v.1.15,2013-02-03 11:30:00,
2013-02-03 06:40:00,15.3,12.9,29.97,NW,307,0.0,0.0,90,0.00,,,0.00,0,Wunderground v.1.15,2013-02-03 11:40:00,
2013-02-03 06:45:00,15.3,12.9,29.97,NW,307,0.0,0.0,90,0.00,,,0.00,0,Wunderground v.1.15,2013-02-03 11:45:00,
2013-02-03 06:55:00,15.3,13.1,29.97,NW,307,0.0,0.0,91,0.00,,,0.00,0,Wunderground v.1.15,2013-02-03 11:55:00,
2013-02-03 07:05:00,15.3,13.1,29.97,NW,307,0.0,0.0,91,0.00,,,0.00,0,Wunderground v.1.15,2013-02-03 12:05:00,
2013-02-03 07:15:00,15.4,13.2,29.97,NW,307,0.0,1.0,91,0.00,,,0.00,0,Wunderground v.1.15,2013-02-03 12:15:00,
2013-02-03 07:25:00,15.4,13.2,29.97,NW,307,0.0,0.0,91,0.00,,,0.00,0,Wunderground v.1.15,2013-02-03 12:25:00,
2013-02-03 07:35:00,15.4,13.2,29.97,NW,307,0.0,0.0,91,0.00,,,0.00,0,Wunderground v.1.15,2013-02-03 12:35:00,
2013-02-03 07:45:00,15.4,13.2,29.97,NW,307,0.0,0.0,91,0.00,,,0.00,0,Wunderground v.1.15,2013-02-03 12:45:00,
2013-02-03 07:55:00,15.5,13.3,29.97,NW,307,0.0,0.0,91,0.00,,,0.00,5,Wunderground v.1.15,2013-02-03 12:55:00,
2013-02-03 08:05:00,15.6,13.4,29.97,NW,307,0.0,0.0,91,0.00,,,0.00,11,Wunderground v.1.15,2013-02-03 13:05:00,
2013-02-03 08:15:00,15.7,13.5,29.97,NW,307,0.0,1.0,91,0.00,,,0.00,18,Wunderground v.1.15,2013-02-03 13:15:00,
2013-02-03 08:25:00,15.9,13.7,29.98,West,259,3.0,5.0,91,0.00,,,0.00,25,Wunderground v.1.15,2013-02-03 13:25:00,
2013-02-03 08:35:00,16.2,14.0,29.99,WSW,258,3.0,4.0,91,0.00,,,0.00,30,Wunderground v.1.15,2013-02-03 13:35:00,
2013-02-03 08:45:00,16.1,13.4,29.99,WSW,254,5.0,6.0,89,0.00,,,0.00,46,Wunderground v.1.15,2013-02-03 13:45:00,
2013-02-03 08:55:00,15.9,13.2,29.99,WSW,246,6.0,6.0,89,0.00,,,0.00,62,Wunderground v.1.15,2013-02-03 13:55:00,
2013-02-03 09:00:00,15.8,13.1,29.99,West,259,6.0,10.0,89,0.00,,,0.00,69,Wunderground v.1.15,2013-02-03 14:00:00,
2013-02-03 09:10:00,15.7,13.0,29.99,WSW,254,6.0,6.0,89,0.00,,,0.00,83,Wunderground v.1.15,2013-02-03 14:10:00,
2013-02-03 09:20:00,15.8,13.1,29.99,WSW,248,5.0,7.0,89,0.00,,,0.00,109,Wunderground v.1.15,2013-02-03 14:20:00,
2013-02-03 09:30:00,15.7,13.0,29.99,WSW,258,7.0,10.0,89,0.00,,,0.00,123,Wunderground v.1.15,2013-02-03 14:30:00,
2013-02-03 09:40:00,15.3,12.4,29.99,WSW,243,8.0,8.0,88,0.00,,,0.00,144,Wunderground v.1.15,2013-02-03 14:40:00,
2013-02-03 09:45:00,15.3,12.4,29.99,WSW,249,7.0,8.0,88,0.00,,,0.00,155,Wunderground v.1.15,2013-02-03 14:45:00,
2013-02-03 09:55:00,15.3,12.4,29.99,WSW,238,6.0,7.0,88,0.00,,,0.00,163,Wunderground v.1.15,2013-02-03 14:55:00,
2013-02-03 10:05:00,15.2,12.0,29.99,WSW,248,8.0,10.0,87,0.00,,,0.00,181,Wunderground v.1.15,2013-02-03 15:05:00,
2013-02-03 10:15:00,15.4,12.2,29.99,West,260,6.0,7.0,87,0.00,,,0.00,167,Wunderground v.1.15,2013-02-03 15:15:00,
2013-02-03 10:25:00,15.4,11.7,29.99,WSW,238,6.0,6.0,85,0.00,,,0.00,336,Wunderground v.1.15,2013-02-03 15:25:00,
2013-02-03 10:35:00,15.6,11.6,29.99,West,265,6.0,10.0,84,0.00,,,0.00,264,Wunderground v.1.15,2013-02-03 15:35:00,
2013-02-03 10:45:00,15.7,11.7,29.99,WSW,255,5.0,6.0,84,0.00,,,0.00,281,Wunderground v.1.15,2013-02-03 15:45:00,
2013-02-03 10:50:00,15.7,11.2,29.99,West,281,6.0,9.0,82,0.00,,,0.00,278,Wunderground v.1.15,2013-02-03 15:50:00,
2013-02-03 11:00:00,15.5,11.0,29.99,WSW,244,8.0,10.0,82,0.00,,,0.00,313,Wunderground v.1.15,2013-02-03 16:00:00,
2013-02-03 11:10:00,15.7,11.2,29.99,WSW,249,6.0,6.0,82,0.00,,,0.00,339,Wunderground v.1.15,2013-02-03 16:10:00,
2013-02-03 11:20:00,16.0,11.2,29.99,West,261,5.0,10.0,81,0.00,,,0.00,304,Wunderground v.1.15,2013-02-03 16:20:00,
2013-02-03 11:30:00,16.0,11.2,29.99,WSW,249,6.0,10.0,81,0.00,,,0.00,294,Wunderground v.1.15,2013-02-03 16:30:00,
2013-02-03 11:40:00,16.0,10.9,29.99,WSW,247,6.0,10.0,80,0.00,,,0.00,330,Wunderground v.1.15,2013-02-03 16:40:00,
2013-02-03 11:50:00,16.0,10.6,29.99,West,260,7.0,8.0,79,0.00,,,0.00,343,Wunderground v.1.15,2013-02-03 16:50:00,
2013-02-03 12:00:00,16.1,10.7,29.99,West,263,7.0,8.0,79,0.00,,,0.00,309,Wunderground v.1.15,2013-02-03 17:00:00,
2013-02-03 12:10:00,16.0,10.6,29.99,WSW,240,7.0,7.0,79,0.00,,,0.00,295,Wunderground v.1.15,2013-02-03 17:10:00,
2013-02-03 12:20:00,16.2,10.8,29.99,WSW,250,7.0,7.0,79,0.00,,,0.00,292,Wunderground v.1.15,2013-02-03 17:20:00,
2013-02-03 12:30:00,16.4,11.0,29.99,West,259,6.0,6.0,79,0.00,,,0.00,306,Wunderground v.1.15,2013-02-03 17:30:00,
2013-02-03 12:40:00,16.8,11.4,29.99,West,259,5.0,5.0,79,0.00,,,0.00,306,Wunderground v.1.15,2013-02-03 17:40:00,
2013-02-03 12:55:00,16.9,11.8,29.98,WSW,251,7.0,7.0,80,0.00,,,0.00,330,Wunderground v.1.15,2013-02-03 17:55:00,
2013-02-03 13:05:00,17.1,11.7,29.98,WSW,254,7.0,8.0,79,0.00,,,0.00,322,Wunderground v.1.15,2013-02-03 18:05:00,
2013-02-03 13:15:00,17.4,12.0,29.98,West,260,6.0,6.0,79,0.00,,,0.00,332,Wunderground v.1.15,2013-02-03 18:15:00,
2013-02-03 13:25:00,17.5,12.1,29.98,West,263,7.0,12.0,79,0.00,,,0.00,383,Wunderground v.1.15,2013-02-03 18:25:00,
2013-02-03 13:35:00,17.7,12.3,29.98,WSW,238,9.0,10.0,79,0.00,,,0.00,401,Wunderground v.1.15,2013-02-03 18:35:00,
2013-02-03 13:40:00,18.0,12.9,29.99,West,265,8.0,8.0,80,0.00,,,0.00,385,Wunderground v.1.15,2013-02-03 18:40:00,
2013-02-03 13:50:00,18.2,12.8,29.98,West,265,10.0,13.0,79,0.00,,,0.00,338,Wunderground v.1.15,2013-02-03 18:50:00,
2013-02-03 14:00:00,18.3,12.9,29.99,West,263,10.0,12.0,79,0.00,,,0.00,410,Wunderground v.1.15,2013-02-03 19:00:00,
2013-02-03 14:10:00,18.9,13.5,29.98,West,266,9.0,10.0,79,0.00,,,0.00,381,Wunderground v.1.15,2013-02-03 19:10:00,
2013-02-03 14:25:00,19.3,13.3,29.98,WSW,239,9.0,9.0,77,0.00,,,0.00,401,Wunderground v.1.15,2013-02-03 19:25:00,
2013-02-03 14:35:00,19.2,13.5,29.98,WSW,245,10.0,11.0,78,0.00,,,0.00,339,Wunderground v.1.15,2013-02-03 19:35:00,
2013-02-03 14:45:00,19.3,13.6,29.99,WSW,244,10.0,10.0,78,0.00,,,0.00,308,Wunderground v.1.15,2013-02-03 19:45:00,
2013-02-03 14:55:00,19.6,13.9,29.99,West,271,10.0,13.0,78,0.00,,,0.00,415,Wunderground v.1.15,2013-02-03 19:55:00,
2013-02-03 15:00:00,19.7,14.0,30.00,WSW,250,10.0,10.0,78,0.00,,,0.00,336,Wunderground v.1.15,2013-02-03 20:00:00,
2013-02-03 15:10:00,19.9,14.1,30.00,WSW,254,10.0,11.0,78,0.00,,,0.00,308,Wunderground v.1.15,2013-02-03 20:10:00,
2013-02-03 15:20:00,20.1,14.3,30.00,WSW,250,12.0,13.0,78,0.00,,,0.00,339,Wunderground v.1.15,2013-02-03 20:20:00,
2013-02-03 15:25:00,20.3,14.8,30.01,WSW,250,11.0,13.0,79,0.00,,,0.00,283,Wunderground v.1.15,2013-02-03 20:25:00,
2013-02-03 15:30:00,20.4,14.6,30.01,West,267,10.0,10.0,78,0.00,,,0.00,262,Wunderground v.1.15,2013-02-03 20:30:00,
2013-02-03 15:35:00,20.4,14.6,30.01,WSW,247,11.0,11.0,78,0.00,,,0.00,283,Wunderground v.1.15,2013-02-03 20:35:00,
2013-02-03 15:45:00,20.5,14.7,30.01,WSW,252,12.0,15.0,78,0.00,,,0.00,327,Wunderground v.1.15,2013-02-03 20:45:00,
2013-02-03 15:55:00,20.7,15.2,30.01,West,260,9.0,11.0,79,0.00,,,0.00,197,Wunderground v.1.15,2013-02-03 20:55:00,
2013-02-03 16:05:00,20.8,15.3,30.02,WSW,255,12.0,13.0,79,0.00,,,0.00,255,Wunderground v.1.15,2013-02-03 21:05:00,
2013-02-03 16:15:00,21.1,15.6,30.02,West,263,9.0,13.0,79,0.00,,,0.00,176,Wunderground v.1.15,2013-02-03 21:15:00,
2013-02-03 16:25:00,20.6,15.4,30.02,WSW,254,14.0,14.0,80,0.00,,,0.00,176,Wunderground v.1.15,2013-02-03 21:25:00,
2013-02-03 16:35:00,20.5,15.6,30.02,WSW,253,12.0,17.0,81,0.00,,,0.00,97,Wunderground v.1.15,2013-02-03 21:35:00,
2013-02-03 16:45:00,20.5,15.9,30.02,WSW,248,10.0,15.0,82,0.00,,,0.00,90,Wunderground v.1.15,2013-02-03 21:45:00,
2013-02-03 16:55:00,20.4,15.5,30.03,WSW,258,10.0,11.0,81,0.00,,,0.00,88,Wunderground v.1.15,2013-02-03 21:55:00,
2013-02-03 17:05:00,20.4,15.5,30.03,WSW,247,10.0,11.0,81,0.00,,,0.00,70,Wunderground v.1.15,2013-02-03 22:05:00,
2013-02-03 17:15:00,20.4,15.8,30.03,WSW,251,10.0,12.0,82,0.00,,,0.00,60,Wunderground v.1.15,2013-02-03 22:15:00,
2013-02-03 17:25:00,20.4,15.5,30.03,WSW,248,9.0,9.0,81,0.00,,,0.00,37,Wunderground v.1.15,2013-02-03 22:25:00,
2013-02-03 17:35:00,20.2,15.0,30.04,West,263,11.0,15.0,80,0.00,,,0.00,21,Wunderground v.1.15,2013-02-03 22:35:00,
2013-02-03 17:40:00,20.0,15.1,30.04,West,261,8.0,8.0,81,0.00,,,0.00,12,Wunderground v.1.15,2013-02-03 22:40:00,
2013-02-03 17:50:00,19.8,14.9,30.04,WSW,258,9.0,12.0,81,0.00,,,0.00,7,Wunderground v.1.15,2013-02-03 22:50:00,
2013-02-03 18:05:00,19.5,14.9,30.05,WSW,255,7.0,7.0,82,0.00,,,0.00,0,Wunderground v.1.15,2013-02-03 23:05:00,
2013-02-03 18:15:00,19.4,14.5,30.05,WSW,258,8.0,10.0,81,0.00,,,0.00,0,Wunderground v.1.15,2013-02-03 23:15:00,
2013-02-03 18:20:00,19.4,14.5,30.05,West,265,8.0,10.0,81,0.00,,,0.00,0,Wunderground v.1.15,2013-02-03 23:20:00,
2013-02-03 18:30:00,19.2,14.3,30.05,West,269,7.0,8.0,81,0.00,,,0.00,0,Wunderground v.1.15,2013-02-03 23:30:00,
2013-02-03 18:40:00,19.2,14.6,30.06,West,263,8.0,11.0,82,0.00,,,0.00,0,Wunderground v.1.15,2013-02-03 23:40:00,
2013-02-03 18:50:00,19.1,14.5,30.06,WSW,237,8.0,10.0,82,0.00,,,0.00,0,Wunderground v.1.15,2013-02-03 23:50:00,
2013-02-03 18:55:00,19.2,14.9,30.06,West,267,9.0,9.0,83,0.00,,,0.00,0,Wunderground v.1.15,2013-02-03 23:55:00,
2013-02-03 19:05:00,19.1,14.8,30.06,WSW,253,7.0,11.0,83,0.00,,,0.00,0,Wunderground v.1.15,2013-02-04 00:05:00,
2013-02-03 19:15:00,19.1,14.8,30.07,WSW,257,7.0,8.0,83,0.00,,,0.00,0,Wunderground v.1.15,2013-02-04 00:15:00,
2013-02-03 19:25:00,19.1,15.1,30.07,West,279,7.0,7.0,84,0.00,,,0.00,0,Wunderground v.1.15,2013-02-04 00:25:00,
2013-02-03 19:35:00,19.6,15.6,30.08,WSW,257,9.0,11.0,84,0.00,,,0.00,0,Wunderground v.1.15,2013-02-04 00:35:00,
2013-02-03 19:45:00,19.7,15.4,30.08,WSW,251,8.0,9.0,83,0.00,,,0.00,0,Wunderground v.1.15,2013-02-04 00:45:00,
2013-02-03 19:55:00,19.9,15.6,30.08,West,279,8.0,12.0,83,0.00,,,0.00,0,Wunderground v.1.15,2013-02-04 00:55:00,
2013-02-03 20:05:00,20.0,15.7,30.08,WSW,252,7.0,8.0,83,0.00,,,0.00,0,Wunderground v.1.15,2013-02-04 01:05:00,
2013-02-03 20:10:00,20.0,15.9,30.08,WSW,249,6.0,6.0,84,0.00,,,0.00,0,Wunderground v.1.15,2013-02-04 01:10:00,
2013-02-03 20:20:00,19.9,15.8,30.08,WSW,256,6.0,6.0,84,0.00,,,0.00,0,Wunderground v.1.15,2013-02-04 01:20:00,
2013-02-03 20:30:00,19.8,16.0,30.08,WSW,257,7.0,8.0,85,0.00,,,0.00,0,Wunderground v.1.15,2013-02-04 01:30:00,
2013-02-03 20:40:00,19.8,16.0,30.08,WSW,247,6.0,6.0,85,0.00,,,0.00,0,Wunderground v.1.15,2013-02-04 01:40:00,
2013-02-03 20:55:00,19.6,15.8,30.08,WSW,250,6.0,6.0,85,0.00,,,0.00,0,Wunderground v.1.15,2013-02-04 01:55:00,
2013-02-03 21:05:00,19.5,15.5,30.08,WSW,248,6.0,7.0,84,0.00,,,0.00,0,Wunderground v.1.15,2013-02-04 02:05:00,
2013-02-03 21:20:00,19.3,15.0,30.09,West,259,6.0,6.0,83,0.00,,,0.00,0,Wunderground v.1.15,2013-02-04 02:20:00,
2013-02-03 21:30:00,19.1,14.5,30.09,WSW,239,6.0,6.0,82,0.00,,,0.00,0,Wunderground v.1.15,2013-02-04 02:30:00,
2013-02-03 21:35:00,19.0,14.4,30.09,SW,229,6.0,7.0,82,0.00,,,0.00,0,Wunderground v.1.15,2013-02-04 02:35:00,
2013-02-03 21:45:00,19.0,14.1,30.09,WSW,242,5.0,5.0,81,0.00,,,0.00,0,Wunderground v.1.15,2013-02-04 02:45:00,
2013-02-03 21:55:00,18.7,13.8,30.09,WSW,244,5.0,5.0,81,0.00,,,0.00,0,Wunderground v.1.15,2013-02-04 02:55:00,
2013-02-03 22:05:00,18.2,13.3,30.10,SW,234,4.0,4.0,81,0.00,,,0.00,0,Wunderground v.1.15,2013-02-04 03:05:00,
2013-02-03 22:10:00,18.0,13.4,30.10,West,265,4.0,4.0,82,0.00,,,0.00,0,Wunderground v.1.15,2013-02-04 03:10:00,
2013-02-03 22:15:00,17.8,13.2,30.10,WSW,240,4.0,6.0,82,0.00,,,0.00,0,Wunderground v.1.15,2013-02-04 03:15:00,
2013-02-03 22:25:00,17.5,12.9,30.10,WSW,250,4.0,4.0,82,0.00,,,0.00,0,Wunderground v.1.15,2013-02-04 03:25:00,
2013-02-03 22:35:00,17.3,13.0,30.10,WSW,248,2.0,4.0,83,0.00,,,0.00,0,Wunderground v.1.15,2013-02-04 03:35:00,
2013-02-03 22:50:00,16.7,12.4,30.10,SW,226,1.0,1.0,83,0.00,,,0.00,0,Wunderground v.1.15,2013-02-04 03:50:00,
2013-02-03 22:55:00,16.4,12.1,30.10,South,185,2.0,2.0,83,0.00,,,0.00,0,Wunderground v.1.15,2013-02-04 03:55:00,
2013-02-03 23:05:00,15.7,13.8,30.10,SSW,198,3.0,3.0,92,0.00,,,0.00,0,Wunderground v.1.15,2013-02-04 04:05:00,
2013-02-03 23:10:00,15.5,11.5,30.09,SSW,193,3.0,3.0,84,0.00,,,0.00,0,Wunderground v.1.15,2013-02-04 04:10:00,
2013-02-03 23:20:00,15.1,11.4,30.09,SSW,208,2.0,2.0,85,0.00,,,0.00,0,Wunderground v.1.15,2013-02-04 04:20:00,
2013-02-03 23:30:00,14.8,11.1,30.10,WSW,240,3.0,4.0,85,0.00,,,0.00,0,Wunderground v.1.15,2013-02-04 04:30:00,
2013-02-03 23:35:00,14.5,11.1,30.10,WSW,240,3.0,4.0,86,0.00,,,0.00,0,Wunderground v.1.15,2013-02-04 04:35:00,
2013-02-03 23:45:00,14.7,11.5,30.10,SW,215,3.0,4.0,87,0.00,,,0.00,0,Wunderground v.1.15,2013-02-04 04:45:00,
2013-02-03 23:55:00,14.8,11.6,30.09,SSW,192,3.0,4.0,87,0.00,,,0.00,0,Wunderground v.1.15,2013-02-04 04:55:00,